SCP
-0 -0 0 0 0 0 0 0 -0 -0 -0 -0 -0 -0 -0 -0 -0 -0 -0 -0 -0 -0 -0 -0 -0 -0 -0 -0 -0 -0 -0 -0 -0 -0 -0 -0 -0 -0 -0 -0 -0 0 -0
0 -0 0 0 0 0 0 0 0 -0 -0 -0 -0 -0 -0 -0 -0 -0 -0 -0 -0 -0 -0 -0 -0 -0 -0 -0 -0 -0 -0 -0 -0 -0 -0 -0 -0 -0 -0 -0 -0 -0 -0
0 0 0 0 0 0 0 0 0 0 -0 -0 -0 -0 -0 -0 -0 -0 -0 -0 -0 -0 -0 -0 -0 -0 -0 -0 -0 -0 -0 -0 -0 -0 -0 0 -0 -0 -0 -0 -0 -0 -0
0 0 0 0 -0 0 0 0 0 0 -0 -0 -0 -0 -0 -0 -0 -0 -0 -0 -0 -0 -0 -0 -0 -0 -0 -0 -0 -0 -0 -0 -0 -0 0 0 0 -0 -0 -0 -0 -0 -0
-0 0 0 0 -0 -0 -0 0 -0 -0 -0 -0 -0 -0 -0 -0 -0 -0 -0 -0 -0 -0 -0 -0 -0 -0 -0 -0 -0 -0 -0 -0 -0 0 0 0 0 -0 -0 -0 -0 -0 -0
-0 0 0 0 -0 -0 -0 -0 -0 -0 -0 -0 -0 -0 -0 -0 -0 -0 -0 -0 -0 -0 -0 -0 -0 -0 -0 -0 -0 -0 -0 -0 0 0 0 0 0 -0 -0 -0 -0 -0 -0
-0 0 0 0 -0 -0 -0 -0 -0 -0 -0 -0 -0 -0 -0 -0 -0 -0 -0 -0 -0 -0 -0 -0 -0 -0 -0 -0 -0 -0 -0 -0 0 0 0 0 0 -0 -0 -0 -0 -0 -0
-0 -0 0 0 0 0 -0 -0 -0 -0 -0 -0 -0 -0 -0 -0 -0 -0 -0 -0 -0 -0 -0 -0 -0 -0 -0 -0 -0 -0 -0 -0 0 0 0 0 -0 -0 -0 -0 -0 -0 -0
-0 -0 0 0 0 0 0 -0 -0 -0 -0 -0 -0 -0 -0 -0 -0 -0 -0 -0 -0 -0 -0 -0 -0 -0 -0 -0 -0 -0 -0 -0 0 0 0 0 -0 -0 -0 -0 -0 -0 -0
-0 -0 -0 0 0 0 0 -0 -0 -0 -0 -0 -0 -0 -0 -0 -0 -0 -0 -0 -0 -0 -0 -0 -0 -0 -0 -0 -0 -0 -0 -0 0 0 0 0 -0 -0 -0 -0 0 0 0
-0 -0 -0 0 0 0 0 0 -0 -0 -0 -0 0 -0 0 0 0 0 0 -0 -0 -0 -0 -0 -0 -0 -0 -0 -0 -0 -0 0 0 0 0 0 -0 0 0 0 0 0 0
-0 -0 -0 -0 0 0 0 0 0 0 0 0 0 0 0 0 0 0 0 -0 -0 -0 -0 -0 -0 -0 0 0 0 0 0 0 0 0 0 0 0 0 0 0 0 0 0
-0 -0 -0 -0 -0 -0 0 0 0 0 0 0 0 0 0 0 0 0 0 0 0 0 0 0 0 0 0 0 0 0 0 0 0 0 0 0 0 0 0 0 0 0 0
-0 -0 -0 -0 -0 -0 0 0 0 0 0 0 0 0 0 0 0 0 0 0 0 0 0 0 0 0 0 0 0 0 0 0 0 0 0 0 0 0 0 0 0 0 0
-0 -0 -0 -0 -0 -0 0 0 0 0 0 0 0 0 0 0 0 0 0 0 0 0 0 0 0 0 0 0 0 0 0 0 0 0 0 0 0 0 0 0 0 0 0
-0 -0 -0 -0 -0 -0 0 0 0 0 0 0 0 0 0 0 0 0 0 0 0 0 0 0 0 0 0 0 0 0 0 0 0 0 0 0 0 0 0 0 0 0 0
-0 -0 -0 -0 -0 -0 0 0 0 0 0 0 0 0 0 0 0 0 0 0 0 0 0 0 0 0 0 0 0 0 0 0 0 0 0 0 0 0 0 0 0 0 0
0 -0 0 0 -0 -0 0 0 0 0 0 0 0 0 0 0 0 0 0 0 0 0 0 0 0 0 0 0 0 0 0 0 0 0 0 0 0 0 0 0 0 0 0
0 0 0 0 0 0 0 0 0 0 0 0 0 0 0 0 0 0 0 0 0 0 0 0 0 0 0 0 0 0 0 0 0 0 0 0 0 0 0 0 0 0 0
0 0 0 0 0 0 0 0 0 0 0 0 0 0 0 0 0 0 0 0 0 0 0 0 0 0 0 0 0 0 0 0 0 0 0 0 0 0 0 0 0 0 0
0 0 0 0 0 0 0 0 0 0 0 0 0 0 0 0 0 0 0 0 0 0 0 0 0 0 0 0 0 0 0 0 0 0 0 0 0 0 0 0 0 0 0
0 0 0 0 0 0 0 0 0 0 0 0 0 0 0 0 0 0 0 0 0 0 0 0 0 0 0 0 0 0 0 0 0 0 0 0 0 0 0 0 0 0 0
0 0 0 0 0 0 0 0 0 0 0 0 0 0 0 0 0 0 0 0 0 0 0 0 0 0 0 0 0 0 0 0 0 0 0 0 0 0 0 0 0 0 0
0 0 0 0 0 0 0 0 0 0 0 0 0 0 0 0 0 0 0 0 0 0 0 0 0 0 0 0 0 0 0 0 0 0 0 0 0 0 0 0 0 0 0
0 0 0 0 0 0 0 0 0 0 0 0 0 0 0 0 0 0 0 0 0 0 0 0 0 0 0 0 0 0 0 0 0 0 0 0 0 0 0 0 0 0 0
0 0 0 0 0 0 0 0 0 0 0 0 0 0 0 0 0 0 0 0 0 0 0 0 0 0 0 0 0 0 0 0 0 0 0 0 0 0 0 0 0 0 0
Wind_Speed_500mb
40 29 28 23 21 18 18 19 21 22 23 23 28 30 23 19 21 23 24 34 35 39 37 34 30 28 30 27 27 30 30 35 41 44 47 47 47 45 44 42 44 47 47
44 36 24 25 22 21 19 20 23 25 25 25 29 32 20 17 22 26 26 31 34 39 36 37 33 31 31 28 27 25 24 24 26 34 39 39 41 45 44 45 42 43 43
39 39 28 28 25 23 22 22 22 24 26 25 28 30 19 17 21 25 27 30 34 36 35 37 32 31 31 31 31 28 25 22 17 16 27 38 33 33 33 34 32 33 31
39 39 32 28 24 24 22 22 23 24 24 26 30 31 19 18 22 27 26 29 33 34 34 35 32 30 30 30 32 33 30 28 26 22 27 37 39 34 31 31 34 34 34
40 37 34 29 26 25 22 22 22 23 24 24 26 26 20 19 21 23 23 25 32 33 39 34 32 29 31 34 35 36 35 36 36 42 44 43 40 33 37 40 45 43 45
40 37 35 31 29 27 23 21 19 20 20 22 22 20 16 17 18 19 20 23 29 30 33 31 29 31 33 35 34 37 41 43 43 47 41 36 36 33 36 40 35 33 36
40 39 37 33 30 28 25 23 20 18 17 17 18 17 13 15 17 18 19 21 22 21 22 25 28 24 31 30 36 40 47 41 39 37 29 30 26 26 30 33 33 32 30
38 41 38 35 30 28 26 23 20 18 17 16 15 13 12 12 15 16 18 19 19 17 20 20 18 18 24 28 32 30 35 34 29 30 29 24 20 26 32 30 31 29 27
35 40 40 37 32 28 26 24 21 19 18 16 14 12 11 12 14 16 18 19 17 17 18 16 17 19 21 23 21 20 19 17 19 21 20 16 19 25 24 24 23 26 28
30 39 40 39 36 33 29 25 22 19 17 15 12 10 11 13 15 17 19 18 17 17 15 15 16 16 16 16 13 9 6 2 8 16 19 23 18 24 25 27 31 33 34
39 34 35 39 39 36 33 29 26 22 19 18 16 14 13 14 17 18 18 18 17 17 17 15 14 13 10 9 10 7 4 8 12 23 22 16 15 17 22 26 28 33 38
52 46 40 37 41 42 39 35 32 29 26 22 16 15 15 15 16 18 19 17 17 18 17 15 12 10 8 7 9 8 4 11 19 28 19 10 6 14 20 24 30 30 33
56 53 49 47 43 46 45 41 38 35 32 26 21 15 16 16 16 16 15 14 15 14 12 12 10 7 6 5 4 4 7 14 24 25 15 5 4 12 17 22 27 30 32
60 55 50 49 47 46 47 47 45 42 40 34 29 24 21 17 14 13 12 12 13 12 10 8 6 5 5 3 3 5 12 10 22 23 19 4 12 17 16 23 25 27 30
65 61 58 51 49 46 52 50 48 47 46 42 38 33 30 27 17 14 14 14 13 12 10 8 7 4 3 5 8 12 12 13 21 18 16 18 15 16 19 21 22 24 29
67 68 62 61 50 54 52 52 53 49 48 50 45 42 37 37 26 22 24 25 24 22 19 16 11 11 10 12 15 20 19 15 20 19 19 16 14 21 19 19 19 21 27
66 68 71 67 59 57 58 53 53 58 52 56 54 49 44 42 37 34 33 34 32 30 29 25 23 22 19 21 23 26 24 21 18 21 24 23 18 15 24 17 18 20 21
65 68 67 70 69 62 64 63 60 58 56 50 56 55 54 49 46 46 42 42 38 37 33 32 29 28 29 27 28 30 30 27 25 26 28 29 24 19 16 16 16 21 20
66 69 68 70 71 71 66 67 67 60 60 59 55 61 59 58 53 49 48 45 48 43 41 39 38 38 34 35 33 35 35 34 32 33 35 34 31 27 22 21 20 28 22
67 70 71 70 71 73 72 71 74 73 68 65 60 60 61 62 60 57 55 54 51 50 49 47 46 43 41 40 37 39 42 41 40 39 42 41 37 33 30 30 27 30 32
67 73 74 75 76 79 85 83 83 81 76 72 65 62 63 62 63 63 62 59 59 55 56 55 55 52 54 50 45 43 46 46 47 49 48 46 42 40 37 36 32 35 36
63 69 75 76 78 80 86 86 87 82 82 75 69 60 65 62 66 69 61 62 61 64 64 67 61 62 58 57 56 44 31 44 53 55 51 50 47 45 43 42 41 41 40
68 64 69 75 76 79 87 92 93 89 86 81 75 69 68 66 64 75 70 72 64 71 67 67 67 75 62 68 67 49 22 28 42 55 58 56 52 50 49 48 49 49 48
64 66 64 71 78 78 84 90 94 94 90 86 71 69 69 67 75 72 74 76 73 70 72 68 72 75 65 77 77 75 66 46 27 26 56 59 57 58 59 57 58 58 56
46 55 58 64 74 75 78 82 86 92 92 87 74 71 68 67 77 79 78 78 80 76 69 72 78 88 69 86 80 83 80 69 52 42 35 54 65 68 68 62 61 63 59
29 38 41 52 64 65 69 75 79 84 84 73 68 69 69 70 75 74 90 85 76 95 78 82 82 91 76 80 85 90 94 90 87 68 61 51 56 65 70 68 65 65 62
Wind_Direction_500mb
171 157 160 162 148 131 118 113 108 104 107 105 102 98 92 84 71 68 72 84 89 95 92 89 93 100 104 103 106 104 104 100 94 94 91 88 87 85 86 85 84 85 84
170 176 167 166 150 137 128 116 110 108 107 110 109 111 99 87 79 78 86 88 92 94 89 86 90 92 94 94 98 107 108 106 105 104 99 98 93 93 91 90 88 89 86
170 175 171 163 150 144 132 121 111 105 106 103 104 113 100 83 78 84 91 94 98 96 91 88 93 86 84 83 89 99 104 109 109 107 108 96 100 99 93 94 93 86 87
172 173 170 166 152 148 135 125 117 111 106 102 110 111 112 94 84 87 93 98 99 97 89 94 91 83 79 80 85 93 98 101 101 99 103 96 88 88 88 86 83 80 71
179 173 169 166 158 152 142 133 125 119 113 108 116 115 118 94 85 90 97 102 105 101 91 100 93 87 82 84 87 91 94 95 93 87 85 86 85 84 93 99 98 97 95
180 175 173 169 162 156 150 143 132 123 117 113 116 118 111 96 96 97 100 107 111 107 111 104 98 87 87 92 92 91 92 95 97 97 95 97 93 92 95 94 98 99 103
181 179 179 175 169 163 159 153 145 136 126 117 114 115 109 100 103 108 110 116 120 116 114 117 108 100 96 99 101 104 105 103 100 98 96 95 96 91 91 89 91 98 101
189 184 185 182 177 171 167 162 157 151 144 136 127 119 109 103 106 112 117 121 124 122 113 120 109 95 89 98 110 111 107 106 96 92 88 79 68 84 96 104 106 107 104
190 191 189 188 184 180 175 172 169 165 158 151 142 131 123 120 121 124 125 127 127 116 119 116 105 101 102 106 108 114 124 122 108 97 84 77 98 106 104 108 109 104 97
198 197 196 194 193 189 185 183 181 177 171 164 154 144 137 134 132 130 130 129 120 113 110 104 99 102 108 112 119 134 152 148 109 109 101 107 88 98 101 102 99 97 97
196 205 201 204 202 199 195 190 188 186 183 178 170 156 151 149 145 141 135 125 115 113 110 108 103 97 91 100 115 136 156 139 120 113 105 111 91 94 98 97 99 94 95
195 200 209 212 213 207 203 200 196 196 193 184 178 166 162 160 155 151 146 139 133 127 120 115 108 102 95 102 124 139 162 149 137 115 107 87 55 96 98 100 101 98 95
199 203 204 211 219 217 211 207 204 202 198 192 186 182 173 165 168 163 170 163 148 141 123 118 114 103 89 84 130 172 173 174 140 130 120 67 18 110 107 106 106 105 101
207 209 208 210 218 219 222 218 212 208 204 206 197 194 199 185 172 184 183 178 167 167 159 149 142 118 112 108 143 163 168 165 171 156 143 134 110 116 109 102 106 101 105
214 214 218 216 218 214 219 224 227 216 212 210 208 207 210 213 204 210 216 217 209 204 207 209 203 205 164 172 192 198 203 180 183 182 201 155 130 126 116 114 108 110 107
220 222 221 223 225 219 221 224 225 226 225 217 216 214 214 215 218 220 227 223 219 222 227 228 225 212 209 207 204 205 212 206 191 199 211 207 178 138 125 121 117 111 109
226 225 224 226 228 227 225 228 222 225 227 227 223 219 220 220 220 227 234 227 228 228 224 226 224 212 216 211 211 211 215 216 206 202 206 225 237 221 155 147 138 124 115
231 228 228 228 230 230 230 228 228 229 231 230 230 226 224 225 227 228 229 230 233 234 236 239 233 227 216 217 218 215 217 225 221 215 217 223 250 235 245 244 163 145 138
238 234 231 231 233 232 235 233 235 232 236 238 238 233 229 229 231 233 235 236 236 241 237 239 239 230 227 217 217 217 218 223 226 222 225 229 242 234 231 214 204 164 163
242 239 236 234 235 234 235 236 235 237 238 237 242 238 238 233 234 236 235 239 241 243 240 241 241 234 232 229 222 220 218 223 225 221 226 231 237 233 228 229 207 187 167
243 241 237 234 234 233 232 232 233 234 238 239 242 243 240 240 238 241 240 241 241 248 247 247 242 234 228 225 224 217 220 222 227 229 227 232 233 232 231 226 217 205 191
240 242 240 236 235 235 236 237 236 235 237 240 243 244 249 246 242 236 241 241 243 250 246 248 248 243 243 233 222 223 227 235 235 230 230 232 232 232 230 224 218 212 210
238 240 240 238 236 236 237 236 237 234 239 237 243 245 244 244 245 247 242 240 240 258 247 249 249 247 256 236 233 228 218 227 237 235 231 229 232 231 228 223 224 219 218
241 240 242 240 238 237 237 238 239 241 241 243 246 252 249 255 246 249 246 245 244 253 250 250 254 249 255 247 236 229 236 244 221 237 234 230 231 231 228 228 228 228 224
242 237 238 239 236 237 239 241 242 242 244 251 253 254 252 254 253 248 250 250 252 244 256 248 256 246 252 251 249 241 239 240 241 244 244 237 234 235 232 232 230 231 229
255 230 237 238 233 236 240 242 242 243 245 252 255 257 255 253 253 255 255 248 258 242 252 250 252 256 260 254 249 248 250 249 247 241 241 251 245 241 237 234 230 229 227
Wind_Speed_850mb
40 29 28 23 21 18 18 19 21 22 23 23 28 30 23 19 21 23 24 34 35 39 37 34 30 28 30 27 27 30 30 35 41 44 47 47 47 45 44 42 44 47 47
44 36 24 25 22 21 19 20 23 25 25 25 29 32 20 17 22 26 26 31 34 39 36 37 33 31 31 28 27 25 24 24 26 34 39 39 41 45 44 45 42 43 43
39 39 28 28 25 23 22 22 22 24 26 25 28 30 19 17 21 25 27 30 34 36 35 37 32 31 31 31 31 28 25 22 17 16 27 38 33 33 33 34 32 33 31
39 39 32 28 24 24 22 22 23 24 24 26 30 31 19 18 22 27 26 29 33 34 34 35 32 30 30 30 32 33 30 28 26 22 27 37 39 34 31 31 34 34 34
40 37 34 29 26 25 22 22 22 23 24 24 26 26 20 19 21 23 23 25 32 33 39 34 32 29 31 34 35 36 35 36 36 42 44 43 40 33 37 40 45 43 45
40 37 35 31 29 27 23 21 19 20 20 22 22 20 16 17 18 19 20 23 29 30 33 31 29 31 33 35 34 37 41 43 43 47 41 36 36 33 36 40 35 33 36
40 39 37 33 30 28 25 23 20 18 17 17 18 17 13 15 17 18 19 21 22 21 22 25 28 24 31 30 36 40 47 41 39 37 29 30 26 26 30 33 33 32 30
38 41 38 35 30 28 26 23 20 18 17 16 15 13 12 12 15 16 18 19 19 17 20 20 18 18 24 28 32 30 35 34 29 30 29 24 20 26 32 30 31 29 27
35 40 40 37 32 28 26 24 21 19 18 16 14 12 11 12 14 16 18 19 17 17 18 16 17 19 21 23 21 20 19 17 19 21 20 16 19 25 24 24 23 26 28
30 39 40 39 36 33 29 25 22 19 17 15 12 10 11 13 15 17 19 18 17 17 15 15 16 16 16 16 13 9 6 2 8 16 19 23 18 24 25 27 31 33 34
39 34 35 39 39 36 33 29 26 22 19 18 16 14 13 14 17 18 18 18 17 17 17 15 14 13 10 9 10 7 4 8 12 23 22 16 15 17 22 26 28 33 38
52 46 40 37 41 42 39 35 32 29 26 22 16 15 15 15 16 18 19 17 17 18 17 15 12 10 8 7 9 8 4 11 19 28 19 10 6 14 20 24 30 30 33
56 53 49 47 43 46 45 41 38 35 32 26 21 15 16 16 16 16 15 14 15 14 12 12 10 7 6 5 4 4 7 14 24 25 15 5 4 12 17 22 27 30 32
60 55 50 49 47 46 47 47 45 42 40 34 29 24 21 17 14 13 12 12 13 12 10 8 6 5 5 3 3 5 12 10 22 23 19 4 12 17 16 23 25 27 30
65 61 58 51 49 46 52 50 48 47 46 42 38 33 30 27 17 14 14 14 13 12 10 8 7 4 3 5 8 12 12 13 21 18 16 18 15 16 19 21 22 24 29
67 68 62 61 50 54 52 52 53 49 48 50 45 42 37 37 26 22 24 25 24 22 19 16 11 11 10 12 15 20 19 15 20 19 19 16 14 21 19 19 19 21 27
66 68 71 67 59 57 58 53 53 58 52 56 54 49 44 42 37 34 33 34 32 30 29 25 23 22 19 21 23 26 24 21 18 21 24 23 18 15 24 17 18 20 21
65 68 67 70 69 62 64 63 60 58 56 50 56 55 54 49 46 46 42 42 38 37 33 32 29 28 29 27 28 30 30 27 25 26 28 29 24 19 16 16 16 21 20
66 69 68 70 71 71 66 67 67 60 60 59 55 61 59 58 53 49 48 45 48 43 41 39 38 38 34 35 33 35 35 34 32 33 35 34 31 27 22 21 20 28 22
67 70 71 70 71 73 72 71 74 73 68 65 60 60 61 62 60 57 55 54 51 50 49 47 46 43 41 40 37 39 42 41 40 39 42 41 37 33 30 30 27 30 32
67 73 74 75 76 79 85 83 83 81 76 72 65 62 63 62 63 63 62 59 59 55 56 55 55 52 54 50 45 43 46 46 47 49 48 46 42 40 37 36 32 35 36
63 69 75 76 78 80 86 86 87 82 82 75 69 60 65 62 66 69 61 62 61 64 64 67 61 62 58 57 56 44 31 44 53 55 51 50 47 45 43 42 41 41 40
68 64 69 75 76 79 87 92 93 89 86 81 75 69 68 66 64 75 70 72 64 71 67 67 67 75 62 68 67 49 22 28 42 55 58 56 52 50 49 48 49 49 48
64 66 64 71 78 78 84 90 94 94 90 86 71 69 69 67 75 72 74 76 73 70 72 68 72 75 65 77 77 75 66 46 27 26 56 59 57 58 59 57 58 58 56
46 55 58 64 74 75 78 82 86 92 92 87 74 71 68 67 77 79 78 78 80 76 69 72 78 88 69 86 80 83 80 69 52 42 35 54 65 68 68 62 61 63 59
29 38 41 52 64 65 69 75 79 84 84 73 68 69 69 70 75 74 90 85 76 95 78 82 82 91 76 80 85 90 94 90 87 68 61 51 56 65 70 68 65 65 62
Wind_Direction_850mb
171 157 160 162 148 131 118 113 108 104 107 105 102 98 92 84 71 68 72 84 89 95 92 89 93 100 104 103 106 104 104 100 94 94 91 88 87 85 86 85 84 85 84
170 176 167 166 150 137 128 116 110 108 107 110 109 111 99 87 79 78 86 88 92 94 89 86 90 92 94 94 98 107 108 106 105 104 99 98 93 93 91 90 88 89 86
170 175 171 163 150 144 132 121 111 105 106 103 104 113 100 83 78 84 91 94 98 96 91 88 93 86 84 83 89 99 104 109 109 107 108 96 100 99 93 94 93 86 87
172 173 170 166 152 148 135 125 117 111 106 102 110 111 112 94 84 87 93 98 99 97 89 94 91 83 79 80 85 93 98 101 101 99 103 96 88 88 88 86 83 80 71
179 173 169 166 158 152 142 133 125 119 113 108 116 115 118 94 85 90 97 102 105 101 91 100 93 87 82 84 87 91 94 95 93 87 85 86 85 84 93 99 98 97 95
180 175 173 169 162 156 150 143 132 123 117 113 116 118 111 96 96 97 100 107 111 107 111 104 98 87 87 92 92 91 92 95 97 97 95 97 93 92 95 94 98 99 103
181 179 179 175 169 163 159 153 145 136 126 117 114 115 109 100 103 108 110 116 120 116 114 117 108 100 96 99 101 104 105 103 100 98 96 95 96 91 91 89 91 98 101
189 184 185 182 177 171 167 162 157 151 144 136 127 119 109 103 106 112 117 121 124 122 113 120 109 95 89 98 110 111 107 106 96 92 88 79 68 84 96 104 106 107 104
190 191 189 188 184 180 175 172 169 165 158 151 142 131 123 120 121 124 125 127 127 116 119 116 105 101 102 106 108 114 124 122 108 97 84 77 98 106 104 108 109 104 97
198 197 196 194 193 189 185 183 181 177 171 164 154 144 137 134 132 130 130 129 120 113 110 104 99 102 108 112 119 134 152 148 109 109 101 107 88 98 101 102 99 97 97
196 205 201 204 202 199 195 190 188 186 183 178 170 156 151 149 145 141 135 125 115 113 110 108 103 97 91 100 115 136 156 139 120 113 105 111 91 94 98 97 99 94 95
195 200 209 212 213 207 203 200 196 196 193 184 178 166 162 160 155 151 146 139 133 127 120 115 108 102 95 102 124 139 162 149 137 115 107 87 55 96 98 100 101 98 95
199 203 204 211 219 217 211 207 204 202 198 192 186 182 173 165 168 163 170 163 148 141 123 118 114 103 89 84 130 172 173 174 140 130 120 67 18 110 107 106 106 105 101
207 209 208 210 218 219 222 218 212 208 204 206 197 194 199 185 172 184 183 178 167 167 159 149 142 118 112 108 143 163 168 165 171 156 143 134 110 116 109 102 106 101 105
214 214 218 216 218 214 219 224 227 216 212 210 208 207 210 213 204 210 216 217 209 204 207 209 203 205 164 172 192 198 203 180 183 182 201 155 130 126 116 114 108 110 107
220 222 221 223 225 219 221 224 225 226 225 217 216 214 214 215 218 220 227 223 219 222 227 228 225 212 209 207 204 205 212 206 191 199 211 207 178 138 125 121 117 111 109
226 225 224 226 228 227 225 228 222 225 227 227 223 219 220 220 220 227 234 227 228 228 224 226 224 212 216 211 211 211 215 216 206 202 206 225 237 221 155 147 138 124 115
231 228 228 228 230 230 230 228 228 229 231 230 230 226 224 225 227 228 229 230 233 234 236 239 233 227 216 217 218 215 217 225 221 215 217 223 250 235 245 244 163 145 138
238 234 231 231 233 232 235 233 235 232 236 238 238 233 229 229 231 233 235 236 236 241 237 239 239 230 227 217 217 217 218 223 226 222 225 229 242 234 231 214 204 164 163
242 239 236 234 235 234 235 236 235 237 238 237 242 238 238 233 234 236 235 239 241 243 240 241 241 234 232 229 222 220 218 223 225 221 226 231 237 233 228 229 207 187 167
243 241 237 234 234 233 232 232 233 234 238 239 242 243 240 240 238 241 240 241 241 248 247 247 242 234 228 225 224 217 220 222 227 229 227 232 233 232 231 226 217 205 191
240 242 240 236 235 235 236 237 236 235 237 240 243 244 249 246 242 236 241 241 243 250 246 248 248 243 243 233 222 223 227 235 235 230 230 232 232 232 230 224 218 212 210
238 240 240 238 236 236 237 236 237 234 239 237 243 245 244 244 245 247 242 240 240 258 247 249 249 247 256 236 233 228 218 227 237 235 231 229 232 231 228 223 224 219 218
241 240 242 240 238 237 237 238 239 241 241 243 246 252 249 255 246 249 246 245 244 253 250 250 254 249 255 247 236 229 236 244 221 237 234 230 231 231 228 228 228 228 224
242 237 238 239 236 237 239 241 242 242 244 251 253 254 252 254 253 248 250 250 252 244 256 248 256 246 252 251 249 241 239 240 241 244 244 237 234 235 232 232 230 231 229
255 230 237 238 233 236 240 242 242 243 245 252 255 257 255 253 253 255 255 248 258 242 252 250 252 256 260 254 249 248 250 249 247 241 241 251 245 241 237 234 230 229 227